Regional Weather Roundup
Issued by NWS

Home | Current Version | Previous Version | Graphics & Text | Print | Product List | Glossary On
Versions: 1 2 3 4 5 6 7 8 9 10 11 12 13 14 15 16 17 18 19 20 21 22 23 24 25 26 27 28 29 30 31 32 33 34 35 36 37 38 39 40 41 42 43 44 45 46 47 48 49 50
000
ASUS45 KCYS 020810
RWRWY

WYOMING REGIONAL WEATHER ROUNDUP
NATIONAL WEATHER SERVICE CHEYENNE WY
200 AM MDT SAT AUG 02 2014

NOTE:  "FAIR" INDICATES FEW OR NO CLOUDS BELOW 12,000 FEET
WITH NO SIGNIFICANT WEATHER AND/OR OBSTRUCTIONS TO VISIBILITY.

WYZ001-020900-
YELLOWSTONE NATIONAL PARK

CITY           SKY/WX    TMP DP  RH WIND       PRES   REMARKS
LK YELLOWSTONE   N/A     45  42  89 NW3       30.44F
W YELLOWSTONE  NOT AVBL

$$
WYZ002>013-054>058-071-098>099-020900-
NORTHERN WYOMING

CITY           SKY/WX    TMP DP  RH WIND       PRES   REMARKS
JACKSON        CLEAR     54  45  71 CALM      30.34S
CODY           PTCLDY    63  48  59 SW8       30.24S
GREYBULL       MOCLDY    68  48  48 SE3       30.16F
WORLAND        MOCLDY    67  47  48 S6        30.19S
SHERIDAN       PTCLDY    58  47  66 CALM      30.18F
BUFFALO        PTCLDY    65  39  38 W9        30.25S
GILLETTE       PTCLDY    54  46  74 CALM      30.18F
HULETT         FAIR      63  45  51 MISG      30.20
NEWCASTLE      FAIR      63  43  48 N3        30.18

$$
WYZ014>020-022>026-101>103-020900-
CENTRAL WYOMING

CITY           SKY/WX    TMP DP  RH WIND       PRES   REMARKS
BIG PINEY      PTCLDY    58  43  57 NW7       30.36F
PINEDALE       PTSUNNY   59  41  51 CALM      30.36F
DUBOIS         FAIR      50  41  71 NW12      30.38S
LANDER         PTCLDY    67  42  40 SW3       30.28S
RIVERTON       MOCLDY    66  44  45 SW5       30.28F
CASPER         CLEAR     58  38  47 NW3       30.25S
DOUGLAS        CLEAR     58  41  53 N5        30.23S

$$
WYZ021-027>030-104>119-020900-
SOUTHERN WYOMING

CITY           SKY/WX    TMP DP  RH WIND       PRES   REMARKS
EVANSTON       PTCLDY    61  40  45 E5        30.35S
KEMMERER       SUNNY     57  37  47 N8        30.36S
FORT BRIDGER   FAIR      61  45  55 NE6       30.38S
ROCK SPRINGS   CLEAR     62  38  40 E12       30.32S
DIXON          FAIR      55  41  58 SE3       30.33S
RAWLINS        CLEAR     56  38  50 CALM      30.33S
SARATOGA       FAIR      52  41  66 SE5       30.35S
LARAMIE        CLEAR     49  43  80 SW7       30.36S
CHEYENNE       CLEAR     56  47  71 NW5       30.30S
TORRINGTON     CLEAR     60  49  66 SE6       30.17S
PINE BLUFFS    FAIR      54  50  87 CALM      30.25S

$$


USA.gov is the U.S. government's official web portal to all federal, state and local government web resources and services.